Location: Unspecified
(0.0000°N, 0.0000°E)
Time: 20:54:11
(UTC+00:00)

CZ-3C DEB (VEB) - Visible Passes

Search period start: 06 March 2026 00:00
Search period end: 16 March 2026 00:00
Orbit: 230 x 25663 km, 20.9° (Epoch: 5 March)

Date Brightness Start Highest point End Pass type
(mag) Time Alt. Az. Time Alt. Az. Time Alt. Az.
6 Mar ? 20:07:18 10° W 20:16:32 53° N 02:18:11 10° E visible
7 Mar ? 04:48:05 10° WNW 06:29:49 21° WNW 10:36:15 10° SE visible
7 Mar ? 18:19:05 10° W 18:23:13 63° NNW 18:48:48 10° ENE visible
8 Mar ? 02:23:41 10° WNW 04:59:57 48° WNW 08:48:01 10° SE visible
9 Mar ? 00:23:01 10° WNW 06:05:00 84° SW 06:57:43 10° ESE visible
9 Mar ? 22:28:58 10° WNW 23:33:43 57° NE 05:03:33 10° ESE visible
10 Mar ? 20:37:38 10° WNW 20:50:32 51° N 02:59:25 10° E visible
11 Mar ? 06:00:01 10° WNW 06:52:52 12° WNW 11:04:52 10° SSE visible
11 Mar ? 18:47:33 10° W 18:53:02 51° N 19:36:04 11° ENE visible
12 Mar ? 02:58:47 10° WNW 05:15:55 39° WNW 09:15:33 10° SE visible
13 Mar ? 00:52:23 10° WNW 04:29:33 67° WNW 07:24:26 10° ESE visible
13 Mar ? 22:55:23 10° WNW 03:46:48 78° ENE 05:30:13 10° ESE visible
14 Mar ? 21:01:55 10° WNW 21:19:29 51° N 03:28:45 10° ESE visible
